This demonstration page uses our WeatherBlox Daily Observations layout. Learn more.

Left ArrowRight Arrow

39.01783, -85.05884

Hourly Observations for September 27, 2018

Temp ( °F °C ) Dew Point ( °F °C ) Humidity (%) Winds ( mph kmh ) Pressure ( in mb ) Visibility ( mi km ) Precip ( " mm )
12:52 am 00:52 Cloudy 59 15 49 9.4 69 69 N 7 11 30.12 1020 10 16 N/A
1:52 am 01:52 Cloudy 60 15.6 48 8.9 65 65 NE 10 17 30.11 1020 10 16 N/A
2:52 am 02:52 Cloudy 60 15.6 46 7.8 60 60 NE 10 17 30.11 1020 10 16 N/A
3:52 am 03:52 Cloudy 58 14.4 47 8.3 67 67 NE 10 17 30.11 1020 10 16 N/A
4:52 am 04:52 Cloudy 58 14.4 47 8.3 67 67 ENE 9 15 30.10 1019 10 16 N/A
5:52 am 05:52 Cloudy 58 14.4 46 7.8 65 65 NE 9 15 30.10 1019 10 16 N/A
6:52 am 06:52 Cloudy 57 13.9 46 7.8 67 67 NE 8 13 30.10 1019 10 16 N/A
7:52 am 07:52 Cloudy 57 13.9 47 8.3 69 69 NE 8 13 30.09 1019 10 16 N/A
8:52 am 08:52 Cloudy 57 13.9 47 8.3 69 69 NE 10 17 30.09 1019 10 16 N/A
9:52 am 09:52 Cloudy 58 14.4 48 8.9 70 70 E 8 13 30.07 1018 10 16 N/A
10:52 am 10:52 Cloudy 60 15.6 50 10 70 70 ENE 7 11 30.07 1018 10 16 N/A
11:52 am 11:52 Cloudy 60 15.6 51 10.6 72 72 NE 6 9 30.07 1018 10 16 N/A
12:52 pm 12:52 Cloudy 61 16.1 51 10.6 70 70 E 5 7 30.06 1018 10 16 N/A
1:52 pm 13:52 Cloudy 61 16.1 52 11.1 72 72 NNE 6 9 30.03 1017 10 16 N/A
2:52 pm 14:52 Cloudy with Rain 60 15.6 55 12.8 84 84 NE 7 11 29.99 1016 6 10 0.01 0.25
3:52 pm 15:52 Cloudy with Light Rain 60 15.6 56 13.3 86 86 NNW 7 11 29.97 1015 10 16 0.02 0.51
4:52 pm 16:52 Cloudy with Light Rain 60 15.6 56 13.3 86 86 N N/A 29.98 1015 10 16 0.01 0.25
5:52 pm 17:52 Cloudy with Light Rain 59 15 57 13.9 93 93 N 9 15 29.97 1015 10 16 0.01 0.25
6:52 pm 18:52 Cloudy 59 15 55 12.8 87 87 E 5 7 29.96 1015 10 16 N/A
7:52 pm 19:52 Mostly Cloudy with Light Rain 58 14.4 56 13.3 93 93 WNW 12 19 30.00 1016 10 16 0.01 0.25
8:52 pm 20:52 Mostly Clear 55 12.8 54 12.2 96 96 N N/A 30.02 1017 10 16 N/A
9:52 pm 21:52 Partly Cloudy 54 12.2 54 12.2 100 100 W 3 6 30.03 1017 10 16 N/A
10:52 pm 22:52 Partly Cloudy 54 12.2 54 12.2 100 100 W 3 6 30.04 1017 7 11 N/A
11:52 pm 23:52 Mostly Clear with Mist and Fog 52 11.1 52 11.1 100 100 N N/A 30.04 1017 5 8 N/A

Powered by AerisWeather